Location: Newark
(34.3481°N, 134.0494°E)
Time: 15:20:27
(UTC+00:00)

Vanguard 3 - Pass Details

Date: 27 January 2020
Orbit: 508 x 3263 km, 33.3° (Epoch: 25 February)

Event Time Altitude Azimuth Distance (km) Brightness Sun altitude
Rises 05:00:56 0° 203° (SSW) 5,897 12.7 31.5°
Reaches altitude 10° 05:05:04 10° 194° (SSW) 5,240 12.6 31.1°
Maximum altitude 05:19:03 33° 137° (SE) 4,381 11.3 29.6°
Drops below altitude 10° 05:35:16 10° 83° (E) 6,136 11.3 27.6°
Sets 05:40:31 0° 75° (ENE) 7,003 11.5 26.9°
